THURAYA-2

Last updated on Jan. 29, 2020, 4:37 a.m. UTC

1 27825U 03026A   20028.65173774  .00000128  00000-0  00000+0 0  9997
2 27825   5.7766  32.5432 0005152 277.8673  95.5662  1.00271204 60960
UTC
Height (km)
Latitude
Longitude
Inclination
Orbital Period
UTC large
Height (km)
Speed (km/s)
/
Latitude / Longitude
Inclination (degrees)
Orbital Period (minutes)
Azimuth
Elevation
Range (km)
Doppler Factor
iOS Compass Heading
iOS Angle

Next 30 passes for location: Hong Kong

Rise time Rise Azimuth (degrees) Set time Set Azimuth (degrees) Duration Max altitude (degrees)

No matching passes for this satellites